Location: Dover
(48.8500°N, 53.9833°W)
Time: 06:20:11
(UTC+00:00)

SL-16 R/B - Pass Details

Date: 14 November 2025
Orbit: 985 x 1006 km, 99.8° (Epoch: 12 December)

Event Time Altitude Azimuth Distance (km) Brightness Sun altitude
Rises 21:39:20 0° 10° (N) 3,748 5.4 -16.8°
Reaches altitude 10° 21:42:04 10° 1° (N) 2,794 4.8 -17.3°
Maximum altitude 21:47:30 32° 301° (WNW) 1,653 4.2 -18.2°
Drops below altitude 10° 21:52:54 10° 241° (WSW) 2,775 5.9 -19.1°
Sets 21:55:37 0° 232° (SW) 3,718 6.5 -19.5°
